Погода в Коблево

Украина / Николаевская область     46°39′37″N   31°12′25″E
темп.,
°C
ветер,
м/с
пор.,
м/с
влажн.,
%
обл.,
%
осадки,
мм/ч
давл.,
гПа
погр.,
м
21 апреля, ср
ср2100:00+8зсз467398 0.0 101192
03:00+7зсз357959 0.0 101280
06:00+6з228196 0.0 101323
09:00+12зюз34615 0.0 1015406
12:00+15юз454487 0.0 10151883
15:00+14ююз785767 0.0 1016653
18:00+13ююз676473 0.3 1016536
21:00+9ююз47856 1.2 1018156
22 апреля, чт
чт2200:00+9ююз36885 0.0 101899
03:00+8ююз34905 0.0 101949
06:00+8ю33915 0.0 101945
09:00+13ю46705 0.0 1020440
12:00+15ю56603 0.0 1020737
15:00+15ю66595 0.0 1020727
18:00+13ю57702 0.0 1019377
21:00+10ю511866 0.1 1020302
23 апреля, пт
пт2300:00+10ююз5128597 0.0 1019289
03:00+10ююз613886 0.0 1018317
06:00+9ююз6139072 0.0 1018333
09:00+12ююз81374100 0.0 1018537
12:00+13ююз81371100 1.0 1018650
15:00+12ююз91277100 1.3 1017509
18:00+11юз61191100 2.8 1017650
21:00+8сз478998 6.5 1018558
24 апреля, сб
сб2400:00+6ссз49893 0.0 1019334
03:00+5сз35873 0.0 1019112
06:00+4зсз35875 0.0 1020107
09:00+9зсз446293 0.0 1020587
12:00+10зсз555885 0.1 10211271
15:00+12з575085 0.5 10201691
18:00+12з574472 0.2 10201684
21:00+7зсз48525 0.2 1021138
25 апреля, вс
вс2500:00+5сз366056 0.0 102288
03:00+5сз3361100 0.0 102246
06:00+4сз2362100 0.0 102126
09:00+8всв1144100 0.0 1021344
12:00+12ююз443732 0.0 10211401
15:00+12ююз554638 0.0 10191436
18:00+11ююз665211 0.0 1018719
21:00+8юз5872100 0.1 1019385